Location: Brede
(50.9167°N, 0.6000°E)
Time: 20:45:47
(UTC+00:00)

Vanguard 1 Rocket - Pass Details

Date: 02 December 2020
Orbit: 655 x 4221 km, 34.3° (Epoch: 17 January)

Event Time Altitude Azimuth Distance (km) Brightness Sun altitude
Exits shadow 02:09:52 46° 160° (SSE) 4,426 10.5 -49.9°
Drops below altitude 10° 02:24:30 10° 107° (ESE) 5,462 11.6 -48.0°
Sets 02:28:04 0° 102° (ESE) 6,074 12.1 -47.5°
